Location: Sternwarte_Laufen
(47.9344°N, 12.9346°E)
Time: 22:09:31
(UTC+01:00)

Envisat - Visible Passes

Search period start: 14 December 2018 00:00
Search period end: 24 December 2018 00:00
Orbit: 764 x 766 km, 98.2° (Epoch: 14 December)

Date Brightness Start Highest point End Pass type
(mag) Time Alt. Az. Time Alt. Az. Time Alt. Az.
14 Dec 4.7 17:01:36 10° ENE 17:03:34 12° NE 17:05:33 10° NNE visible
14 Dec 2.8 18:36:39 10° SSE 18:41:42 71° ENE 18:46:46 10° N visible
14 Dec 5.5 20:17:58 10° SW 20:21:15 17° W 20:24:33 10° NW visible
15 Dec 5.8 06:42:57 10° NE 06:46:31 19° E 06:50:04 10° SE visible
15 Dec 3.5 18:00:33 10° SE 18:05:07 35° ENE 18:09:44 10° N visible
15 Dec 4.5 19:39:32 10° SSW 19:44:08 34° W 19:48:47 10° NNW visible
16 Dec 4.3 17:25:15 10° ESE 17:28:45 19° ENE 17:32:15 10° NNE visible
16 Dec 3.1 19:02:11 10° S 19:07:14 71° WSW 19:12:20 10° NNW visible
17 Dec 5.1 07:07:49 10° NNE 07:12:19 31° E 07:16:48 10° SSE visible
17 Dec 4.8 16:52:25 10° NE 16:52:33 10° NE 16:52:43 10° NE visible
17 Dec 3.0 18:25:34 10° SSE 18:30:32 57° ENE 18:35:32 10° N visible
17 Dec 5.3 20:06:07 10° SW 20:09:56 21° W 20:13:45 10° NW visible
18 Dec 5.9 06:32:15 10° NE 06:35:11 15° E 06:38:06 10° ESE visible
18 Dec 3.7 17:49:40 10° ESE 17:54:00 29° ENE 17:58:22 10° N visible
18 Dec 4.1 19:28:04 10° S 19:32:52 42° W 19:37:43 10° NNW visible
19 Dec 4.4 17:14:42 10° E 17:17:42 16° ENE 17:20:41 10° NNE visible
19 Dec 2.9 18:50:57 10° SSE 18:56:02 87° WSW 19:01:10 10° NNW visible
19 Dec 5.9 20:33:42 10° WSW 20:35:49 12° W 20:37:56 10° WNW visible
20 Dec 5.5 06:56:51 10° NE 07:01:02 25° E 07:05:11 10° SSE visible
20 Dec 3.2 18:14:32 10° SE 18:19:23 47° ENE 18:24:15 10° N visible
20 Dec 5.0 19:54:25 10° SSW 19:58:37 26° W 20:02:51 10° NW visible
21 Dec 6.1 06:21:51 10° ENE 06:23:50 12° E 06:25:48 10° ESE visible
21 Dec 4.0 17:38:53 10° ESE 17:42:55 24° ENE 17:46:59 10° N visible
21 Dec 3.7 19:16:41 10° S 19:21:38 53° W 19:26:37 10° NNW visible
22 Dec 4.6 17:04:20 10° E 17:06:39 13° NE 17:08:59 10° NNE visible
22 Dec 2.8 18:39:47 10° SSE 18:44:50 77° ENE 18:49:57 10° N visible
22 Dec 5.7 20:21:27 10° SW 20:24:27 16° W 20:27:29 10° NW visible
23 Dec 5.8 06:45:57 10° NE 06:49:43 21° E 06:53:28 10° SE visible
23 Dec 3.4 18:03:35 10° SE 18:08:15 38° ENE 18:12:56 10° N visible
23 Dec 4.6 19:42:49 10° SSW 19:47:19 32° W 19:51:52 10° NNW visible
